INMARSAT 3-F5
1 25153U 98006B   03017.05055557  .00000158  00000-0  10000-3 0  8337
2 25153   0.4459 357.4673 0003810 313.0559 208.7476  1.00276883 18179
HOT BIRD 4
1 25237U 98013A   03013.80550721  .00000107  00000-0  10000-3 0  3250
2 25237   0.0242 116.4838 0007929 193.6371 105.7449  1.00276095 18185
NOAA 15
1 25338U 98030A   03021.14586312  .00000306  00000-0  15112-3 0  9764
2 25338  98.5505  44.0657 0011259  42.8183 317.3870 14.24232071243751
RESURS O1-N4
1 25394U 98043A   03020.89514355  .00000228  00000-0  11857-3 0  4286
2 25394  98.6367  99.3475 0001498 157.2931 202.8313 14.23867192235452
TMSAT
1 25396U 98043C   03019.24134977 -.00000043  00000-0  00000+0 0  8153
2 25396  98.6325  96.9354 0002538 197.4850 162.6242 14.23500697235211
TECHSAT 1B
1 25397U 98043D   03015.94654005 +.00000110 +00000-0 +68115-4 0 01340
2 25397 098.6280 092.6275 0000515 208.9633 151.1516 14.22951279234713
ASTRA 2A
1 25462U 98050A   03013.00000000  .00000169  00000-0  00000+0 0  5281
2 25462   0.0385 308.7109 0004824 280.8620 270.7162  1.00272094 16073
EUTELSAT W2
1 25491U 98056A   03015.86810854  .00000123  00000-0  00000+0 0  5641
2 25491   0.0572 107.9262 0003740 184.8614 150.6403  1.00275257 15712
HOT BIRD 5
1 25495U 98057A   03015.13542825  .00000175  00000-0  00000+0 0  4923
2 25495   0.0349 198.9702 0009463  93.1649 263.9846  1.00277875 15677
SEDSAT 1
1 25509U 98061B   03021.18758421  .00001396  00000-0  27153-3 0  7614
2 25509  31.4317 313.4374 0357471  55.0350 308.3251 14.27388138221251
PAN SAT
1 25520U 98064B   03020.22160691  .00003372  00000-0  17200-3 0  6314
2 25520  28.4567  59.2759 0006279  35.6155 324.4854 15.13730410233131
ISS (ZARYA)
1 25544U 98067A   03021.52867311  .00029415  00000-0  36860-3 0  6072
2 25544  51.6369  36.9465 0005784  62.2998  75.7455 15.59494362238122
ORSTED
1 25635U 99008B   03020.57984010  .00000982  00000-0  25525-3 0  8110
2 25635  96.4474  13.7578 0146735  61.3836 300.2033 14.44782799205756
SUNSAT
1 25636U 99008C   03017.88818205  .00000509  00000-0  14031-3 0  6576
2 25636  96.4513  10.4338 0150726  75.9281 285.8610 14.42922471205243
UOSAT 12
1 25693U 99021A   03021.50693843  .00000519  00000-0  94232-4 0  6312
2 25693  64.5612  96.6745 0017720 317.2701  42.7023 14.76356154202112
FENGYUN 1C
1 25730U 99025A   03020.87801832  .00000087  00000-0  70758-4 0  7471
2 25730  98.6358  46.3551 0015393  84.9618 275.3310 14.11731344190582
ASTRA 1H
1 25785U 99033A   03013.00000000  .00000139  00000-0  10000-3 0  3685
2 25785   0.0122 319.8851 0002995  65.1991 106.1621  1.00273184 13136
TERRA
1 25994U 99068A   03021.15830410  .00000603  00000-0  14382-3 0  6211
2 25994  98.2055  97.8130 0001030  77.4833 282.6481 14.57098348164533
JAWSAT
1 26061U 00004A   03020.56084044  .00000801  00000-0  28375-3 0  7451
2 26061 100.2114  72.2392 0035227   2.2339 357.8995 14.37791279156366
OPAL
1 26063U 00004C   03020.55960523  .00000253  00000-0  10759-3 0  7028
2 26063 100.2164  69.8700 0037370   8.8519 351.3317 14.35469251156223
ASUSAT
1 26065U 00004E   03020.86552617  .00000281  00000-0  11741-3 0  7130
2 26065 100.2162  70.3745 0037459   9.4455 350.7421 14.35495858156268
GOES 11
1 26352U 00022A   03020.54661892 -.00000032  00000-0  10000-3 0  9831
2 26352   0.0726 109.4312 0004509 167.9196 286.3734  1.00262399  9949
EUTELSAT W4
1 26369U 00028A   03020.74646432  .00000162  00000-0  00000+0 0  3427
2 26369   0.0515  36.9954 0007242 258.1422 129.3333  1.00272559  9761
FENGYUN 2B
1 26382U 00032A   03020.61290044 -.00000320  00000-0  00000+0 0  7721
2 26382   0.6383 287.1671 0000407 147.3433   9.9863  1.00262967  9424
EUTELSAT W1
1 26487U 00052A   03019.89353010  .00000077  00000-0  10000-3 0  3459
2 26487   0.0166  80.1752 0003955 205.6248 164.6935  1.00272665  8724
ASTRA 2B
1 26494U 00054A   03013.00000000  .00000169  00000-0  00000+0 0  2517
2 26494   0.0178 354.5658 0005000 302.8402 202.8287  1.00276704  8557
NOAA 16
1 26536U 00055A   03021.02285524  .00000135  00000-0  98331-4 0  1748
2 26536  98.8997 329.5229 0011084  30.8026 329.3738 14.11887414120129
SAUDISAT 1A
1 26545U 00057A   03019.86079131  .00001794  00000-0  25629-3 0  4007
2 26545  64.5587 123.2247 0054002 243.5242 116.0339 14.78897968124820
UNISAT
1 26547U 00057C   03019.45651085  .00003220  00000-0  43408-3 0  4199
2 26547  64.5573 126.8153 0061101 246.0559 113.4083 14.79607983124733
TIUNGSAT 1
1 26548U 00057D   03020.73921451  .00002371  00000-0  31675-3 0  4043
2 26548  64.5577 113.7347 0047125 242.6085 117.0234 14.81169097125094
SAUDISAT 1B
1 26549U 00057E   03020.34923777  .00002036  00000-0  29420-3 0  6702
2 26549  64.5496 125.6847 0058415 243.6180 115.8907 14.77841897124826
AMSAT OSCAR 40
1 26609U 00072B   03018.40123252 -.00000010  00000-0  10000-3 0  3050
2 26609   7.9708  69.8773 7935358 134.4243 325.7472  1.25596623 10197
GOES 12
1 26871U 01031A   03017.22389260 -.00000074  00000-0  10000-3 0  7761
2 26871   0.4716  97.7371 0000777  39.9403 313.9601  1.00278668  5519
PCSAT
1 26931U 01043C   03020.20165909  .00000405  00000-0  19208-3 0  3813
2 26931  67.0477 331.2154 0005293 258.2923 101.7584 14.29099685 68152
SAPPHIRE
1 26932U 01043D   03020.88317938  .00000233  00000-0  12405-3 0  3764
2 26932  67.0581 329.1708 0005861 242.5818 117.4686 14.29283534 68278
ENVISAT
1 27386U 02009A   03021.18181547 -.00000651  00000-0 -22536-3 0  8644
2 27386  98.5486  90.1423 0000849  89.4434 270.6897 14.32239804 46689
IDEFIX/ARIANE 42P
1 27422U 02021B   03020.87382093  .00000354  00000-0  16074-3 0  2139
2 27422  98.6994 100.2024 0011943 230.9983 129.0135 14.27954287 37364
NOAA 17
1 27453U 02032A   03021.16457319  .00000370  00000-0  18288-3 0  2757
2 27453  98.7614  92.5181 0012631  80.0802 280.1800 14.23276220 29925
HOT BIRD 6
1 27499U 02038A   03013.80550721  .00000106  00000-0  10000-3 0   665
2 27499   0.0928  32.8693 0008090 290.3889  92.5421  1.00271722  1476
RUBIN 2
1 27605U 02058A   03020.21817919  .00001034  00000-0  18692-3 0   345
2 27605  64.5528 286.3633 0030466 122.9506 237.4526 14.71385883  4491
STS-107
1 27647U 03003A   03021.25000000  .00058592  67829-5  12021-3 0   205
2 27647  39.0177 198.5463 0010919  30.2299 210.1596 15.98699125   724
